Irving, TX

3:32 AM CDT on September 28, 2016 (GMT -0500)
Dallas-Fort Worth International

Weather History for KDFW - November, 2012

Change the Weather History Date:

Monday, November 26, 2012

  Actual Average Record
Temperature  
Mean Temperature 61 °F 52 °F  
Max Temperature 74 °F 62 °F 88 °F (1965)
Min Temperature 48 °F 42 °F 23 °F (1993)
Degree Days  
Heating Degree Days 4 13  
Month to date heating degree days 145 226  
Since 1 July heating degree days 243 298  
Cooling Degree Days 0 0  
Month to date cooling degree days 39 27  
Year to date cooling degree days 3322 2750  
Growing Degree Days 10 (Base 50)    
Moisture  
Dew Point 48 °F    
Average Humidity 58    
Maximum Humidity 90    
Minimum Humidity 25    
Precipitation  
Precipitation 0.00 in 0.08 in 3.06 in (1914)
Month to date precipitation 0.05 2.41  
Year to date precipitation 29.31 33.29  
Snow  
Snow 0.00 in 0.00 in T in (1918)
Month to date snowfall 0.0 0.0  
Since 1 July snowfall 0.0 0.0  
Since 1 September snowfall 0.0 0.0  
Snow Depth 0.00 in    
Sea Level Pressure  
Sea Level Pressure 29.98 in    
Wind  
Wind Speed 15 mph (West)    
Max Wind Speed 30 mph    
Max Gust Speed 35 mph    
Visibility 10 miles    
Events      
T = Trace of Precipitation, MM = Missing Value Source: NWS Daily Summary

Daily Weather History Graph

Daily Weather History Graph

Search for Another Location

Airport or City:

Trip Planner

Search our weather history database for the weather conditions in past years. The results will help you decide how hot, cold, wet, or windy it might be!

Date:

Astronomy

Nov. 26, 2012 Rise Set
Actual Time 7:08 AM CST 5:22 PM CST
Civil Twilight 6:42 AM CST 5:48 PM CST
Nautical Twilight 6:11 AM CST 6:19 PM CST
Astronomical Twilight 5:42 AM CST 6:48 PM CST
Moon 4:12 PM CST (11/26) 5:23 AM CST (11/26)
Length of Visible Light 11h 06m
Length of Day
10h 13m
Waxing Gibbous, 97% of the Moon is Illuminated
Nov 26
Waxing Gibbous
Nov 28
Full
Dec 6
Last Quarter
Dec 13
New
Dec 19
First Quarter

Hourly Weather History & Observations

Time (CST) Temp. Dew Point Humidity Pressure Visibility Wind Dir Wind Speed Gust Speed Precip Events Conditions
12:53 AM 62.1 °F 54.0 °F 75% 29.85 in 10.0 mi South 13.8 mph - N/A   Clear
1:53 AM 61.0 °F 54.0 °F 78% 29.85 in 10.0 mi South 13.8 mph - N/A   Clear
2:53 AM 61.0 °F 55.0 °F 81% 29.84 in 10.0 mi South 15.0 mph - N/A   Clear
3:53 AM 59.0 °F 55.0 °F 87% 29.85 in 10.0 mi South 10.4 mph - N/A   Partly Cloudy
4:53 AM 59.0 °F 55.9 °F 90% 29.84 in 10.0 mi South 10.4 mph - N/A   Partly Cloudy
5:53 AM 60.1 °F 57.0 °F 90% 29.85 in 10.0 mi South 12.7 mph - N/A   Partly Cloudy
6:12 AM 60.8 °F 57.2 °F 88% 29.87 in 10.0 mi South 11.5 mph - N/A   Scattered Clouds
6:23 AM 60.8 °F 57.2 °F 88% 29.88 in 10.0 mi South 11.5 mph - N/A   Mostly Cloudy
6:53 AM 60.1 °F 57.9 °F 93% 29.87 in 6.0 mi South 12.7 mph - N/A   Overcast
7:53 AM 61.0 °F 57.9 °F 90% 29.89 in 9.0 mi South 9.2 mph - N/A   Mostly Cloudy
8:12 AM 60.8 °F 57.2 °F 88% 29.91 in 9.0 mi South 11.5 mph - N/A   Scattered Clouds
8:53 AM 63.0 °F 57.9 °F 84% 29.91 in 10.0 mi SSW 15.0 mph - N/A   Scattered Clouds
9:53 AM 66.9 °F 57.0 °F 70% 29.92 in 10.0 mi SSW 12.7 mph - N/A   Scattered Clouds
10:53 AM 69.1 °F 55.0 °F 61% 29.93 in 10.0 mi SW 10.4 mph - N/A   Scattered Clouds
11:53 AM 72.0 °F 55.0 °F 55% 29.92 in 10.0 mi WNW 10.4 mph - N/A   Scattered Clouds
12:53 PM 73.9 °F 50.0 °F 43% 29.90 in 10.0 mi NW 11.5 mph - N/A   Scattered Clouds
1:53 PM 73.0 °F 36.0 °F 26% 29.91 in 10.0 mi NW 16.1 mph - N/A   Scattered Clouds
2:53 PM 69.1 °F 39.9 °F 35% 29.95 in 10.0 mi NW 15.0 mph - N/A   Scattered Clouds
3:53 PM 69.1 °F 43.0 °F 39% 29.97 in 10.0 mi NNW 13.8 mph - N/A   Scattered Clouds
4:53 PM 64.0 °F 45.0 °F 50% 30.02 in 10.0 mi NNW 19.6 mph - N/A   Mostly Cloudy
5:53 PM 57.9 °F 42.1 °F 56% 30.08 in 10.0 mi North 23.0 mph 27.6 mph N/A   Mostly Cloudy
6:23 PM 57.2 °F 41.0 °F 55% 30.11 in 10.0 mi North 21.9 mph 29.9 mph N/A   Overcast
6:53 PM 55.0 °F 39.0 °F 55% 30.11 in 10.0 mi North 26.5 mph 33.4 mph N/A   Overcast
7:53 PM 53.1 °F 37.0 °F 55% 30.14 in 10.0 mi North 19.6 mph - N/A   Overcast
8:53 PM 51.1 °F 35.1 °F 54% 30.17 in 10.0 mi North 15.0 mph - N/A   Mostly Cloudy
9:53 PM 50.0 °F 34.0 °F 54% 30.17 in 10.0 mi North 17.3 mph - N/A   Mostly Cloudy
10:53 PM 50.0 °F 34.0 °F 54% 30.23 in 10.0 mi North 21.9 mph 28.8 mph N/A   Overcast
11:25 PM 48.2 °F 33.8 °F 58% 30.24 in 10.0 mi North 16.1 mph 23.0 mph N/A   Scattered Clouds
11:53 PM 48.0 °F 33.1 °F 56% 30.25 in 10.0 mi North 17.3 mph 25.3 mph N/A   Mostly Cloudy